Vertical_Velocity
-0 1 1 -0 -4 -1 -0 -0 0 1 0 1 -1 0 0 1 -2 1 1 1 0 1 2 -1 1 1 -0 0 0 -0 -0 -1 -1 -0 -1 -1 -2 -2 -1 -2 -0 -1 0 0 1
1 1 -0 1 -2 -1 -2 -3 -0 -1 -0 0 1 1 0 -1 -1 1 1 -0 2 1 2 1 0 0 1 0 0 0 -0 -0 -0 0 0 -1 -1 -1 -0 0 0 1 1 1 1
-0 -1 -1 -0 -0 -0 1 8 -4 -1 0 -2 1 2 0 -1 -0 -0 0 -0 0 2 2 -0 1 1 -0 2 1 -0 -1 1 0 0 -1 -0 -1 -0 0 -1 -0 1 3 3 4
-1 1 -0 -2 -1 2 -1 0 1 3 -1 -0 -0 2 0 0 1 2 1 -0 3 1 1 -0 2 -1 -1 -0 -1 1 -1 -0 0 0 -0 0 -0 1 0 -1 -2 -1 -4 -4 -4
-1 -1 0 -1 -1 1 -0 0 -0 -0 1 -2 2 1 1 1 2 1 0 1 1 0 0 -0 1 1 -1 -2 -1 0 -2 -1 -1 0 -0 -0 -0 1 -4 1 -1 -1 -1 1 -0
-1 -1 0 -1 -0 -0 -1 -2 -0 2 -3 -1 -3 3 -1 1 2 2 1 3 3 0 -1 -0 1 0 -1 -1 0 -0 -1 -2 -1 -1 0 -1 -3 -2 -5 -3 -1 -2 -0 -1 -3
-2 -1 -0 0 1 1 1 0 -1 2 1 -4 -0 2 2 2 1 3 1 2 2 2 -0 -0 0 -0 1 -1 1 -1 -1 -1 -0 -1 1 -2 -1 0 0 1 -1 1 0 -1 -2
2 -1 -1 -1 1 0 0 0 -0 -1 0 -0 -0 1 1 3 -0 3 1 2 1 1 1 1 -0 -1 -1 -1 -1 -2 -2 -1 -1 -0 -1 -3 5 2 -1 0 -1 1 2 1 1
1 -0 -1 1 -0 -0 0 -0 1 1 0 1 -1 -3 -3 1 2 2 2 1 1 1 -0 -0 0 -1 -1 -1 -1 0 0 -1 -1 -1 -2 -5 3 -0 -1 1 -3 0 0 -1 -1
0 1 -0 -2 -1 0 2 0 -1 -0 -1 3 -2 -0 -2 1 1 4 3 2 2 0 1 -0 -0 -1 -1 -1 -0 -2 -3 -1 -4 3 -2 -3 4 -3 -0 3 -4 -4 0 0 0
-2 2 -2 1 -0 2 0 1 -1 -0 -1 0 3 -1 -2 1 -1 -1 1 3 1 1 1 -1 -1 1 -1 -1 -1 -0 -2 -1 -2 -2 0 -2 5 -9 -2 4 2 -2 -1 -1 -2
-1 -3 3 -2 0 -0 0 2 -0 1 -1 -3 1 1 -1 -0 2 -0 1 1 2 1 1 -1 1 -1 -1 -1 -1 -0 -1 -1 -1 -2 -1 -2 7 -3 -1 -1 1 -2 -2 -1 -1
-1 -1 -2 -0 3 0 1 -1 1 -0 -2 4 -1 2 -2 -5 -0 4 0 0 1 2 1 -1 2 1 0 -1 -1 -1 -2 -2 -1 -3 -1 2 3 0 1 -0 0 -1 1 1 -2
2 1 0 2 -0 1 2 1 -1 5 -7 4 -7 -5 2 -4 -2 0 -2 2 1 1 2 -1 -0 -0 -0 -1 0 -1 1 0 -2 -1 -4 -1 -6 2 1 -1 0 1 1 -2 -2
3 -0 1 0 3 3 -3 2 2 -2 -18 -7 1 7 2 -5 7 -2 -5 -3 2 1 -0 4 1 -1 -0 1 -1 -1 -1 1 -1 -2 -2 -3 -9 9 -0 -1 1 -0 -2 -2 -2
2 2 1 -1 1 6 0 2 3 -4 -10 -7 0 2 -3 1 5 6 0 -0 -3 -3 1 1 -1 -1 -1 -1 -1 -0 -1 -1 1 -0 -3 -3 -6 17 1 -0 0 -1 -2 -2 -2
2 1 -2 -3 10 1 3 5 -2 -15 0 -4 0 1 -1 1 3 0 1 -1 1 -2 4 3 1 2 -0 -1 0 -0 1 -3 -3 -2 -1 -2 -7 5 1 4 1 -2 -3 -4 -5
1 -1 -3 7 6 1 3 0 -19 7 4 5 -1 -1 -2 2 2 6 5 8 5 1 4 0 0 -1 3 1 -0 -1 -0 -0 -5 -1 1 2 -3 -3 -1 -0 -1 -2 -2 -3 -5
7 -3 3 5 4 2 3 -18 -3 11 3 2 1 -1 -1 1 -2 1 2 1 -1 4 -5 0 -2 0 2 1 0 5 0 -0 -3 -2 -2 -1 4 -8 1 0 1 -3 -2 -1 -6
5 -0 6 2 3 -0 -8 -13 -6 2 6 3 -1 -2 -3 4 9 8 4 10 1 -0 0 0 -0 -1 1 -1 -1 -1 2 -2 0 -6 -2 1 7 -1 -1 -4 1 -1 -3 -2 -3
6 -1 10 7 3 -3 -28 -5 4 11 6 1 3 -3 1 1 1 -1 -2 10 7 5 1 4 -2 5 -2 3 0 -1 1 -1 -4 -3 -5 -3 8 2 -1 -6 1 -2 -2 -1 -1
1 -3 2 8 -5 -2 -7 13 10 7 8 -2 -1 1 -2 2 2 -3 -4 -4 4 4 0 4 -5 -2 2 -1 -2 -2 1 -2 -5 -1 -3 -4 19 -2 -1 -5 2 -0 -4 -3 -2
-12 5 1 2 -15 -1 4 -1 -2 3 11 -0 0 0 8 4 -11 -1 -2 2 2 -0 6 2 -9 -0 -0 -1 -0 0 4 -2 -3 -3 4 -10 20 -8 -3 1 -5 -0 -3 -1 -4
-8 -11 10 -11 1 1 4 -1 -4 3 0 -1 2 -1 4 6 2 -4 2 5 1 4 5 2 -1 1 4 3 -1 1 2 -3 -5 -5 4 2 5 5 -7 2 -6 -3 -2 -5 -6
-7 -5 11 -10 -0 -4 3 5 2 -3 -1 11 -4 -7 8 3 1 1 -0 4 7 6 2 -2 0 2 5 -0 -1 -0 1 -4 -4 -2 -6 12 -1 1 2 2 -1 -0 -1 -2 -5
6 3 -2 10 -0 -7 -4 12 2 12 -0 5 -11 10 4 -8 11 -0 9 2 5 3 9 1 -1 5 3 1 -0 -3 -5 2 -4 1 1 -6 7 -16 2 1 -0 0 1 -3 -2
3 10 -14 23 12 -6 -1 9 2 -5 -3 -3 6 -7 -14 20 -2 -1 0 -0 -0 7 2 4 3 5 -1 1 -2 -21 22 -5 -4 1 -3 -2 -1 -3 -1 0 -1 1 -1 -2 -2
Height
5740 5739 5739 5739 5738 5738 5737 5737 5738 5738 5739 5738 5737 5736 5737 5738 5739 5742 5742 5745 5746 5748 5751 5752 5754 5757 5759 5760 5761 5762 5763 5763 5763 5764 5765 5765 5765 5765 5765 5765 5766 5766 5767 5768 5769
5735 5735 5734 5734 5733 5733 5732 5732 5733 5734 5734 5733 5733 5732 5733 5734 5736 5738 5739 5741 5743 5745 5748 5749 5752 5754 5756 5757 5758 5759 5760 5761 5762 5762 5763 5763 5763 5764 5764 5763 5764 5764 5764 5765 5765
5730 5729 5729 5729 5728 5728 5728 5727 5727 5728 5729 5729 5728 5729 5729 5730 5733 5734 5735 5738 5740 5742 5745 5747 5749 5752 5754 5755 5755 5756 5757 5758 5759 5760 5760 5761 5761 5761 5761 5760 5760 5760 5760 5761 5762
5725 5724 5723 5723 5723 5722 5722 5722 5721 5722 5723 5723 5725 5725 5725 5727 5730 5730 5733 5735 5737 5739 5742 5744 5746 5748 5750 5752 5753 5754 5754 5755 5756 5757 5757 5757 5758 5758 5757 5757 5757 5757 5757 5758 5758
5720 5720 5719 5718 5718 5717 5716 5716 5716 5715 5716 5717 5720 5720 5722 5723 5725 5726 5729 5732 5734 5736 5738 5740 5743 5744 5746 5748 5749 5750 5750 5751 5751 5752 5752 5753 5753 5754 5753 5753 5753 5753 5753 5753 5753
5714 5714 5713 5712 5712 5712 5711 5711 5711 5710 5710 5712 5713 5715 5717 5719 5720 5722 5725 5728 5730 5733 5735 5737 5739 5741 5742 5743 5745 5746 5746 5747 5747 5747 5747 5748 5749 5750 5749 5748 5748 5748 5748 5747 5747
5708 5708 5708 5707 5707 5706 5706 5706 5706 5704 5705 5707 5709 5711 5713 5715 5715 5718 5721 5723 5726 5728 5731 5733 5735 5737 5738 5739 5740 5741 5742 5742 5743 5742 5743 5743 5744 5745 5744 5744 5743 5743 5743 5742 5740
5701 5701 5700 5700 5700 5700 5699 5700 5700 5700 5701 5701 5704 5706 5708 5710 5711 5713 5715 5718 5721 5724 5726 5728 5730 5732 5734 5735 5736 5737 5738 5738 5738 5738 5738 5739 5740 5739 5738 5738 5737 5737 5737 5735 5732
5692 5692 5692 5693 5693 5693 5692 5693 5694 5694 5695 5695 5699 5700 5703 5705 5706 5708 5710 5713 5716 5718 5721 5723 5725 5727 5729 5730 5731 5731 5733 5732 5733 5733 5733 5734 5734 5733 5733 5733 5731 5730 5729 5727 5725
5683 5684 5685 5685 5685 5685 5685 5686 5687 5689 5690 5691 5691 5696 5699 5701 5701 5703 5705 5707 5710 5713 5716 5718 5719 5721 5723 5724 5726 5726 5726 5727 5727 5728 5727 5728 5728 5727 5727 5728 5725 5723 5722 5720 5717
5674 5675 5675 5676 5677 5678 5678 5680 5682 5683 5683 5685 5687 5688 5691 5695 5696 5698 5699 5702 5704 5707 5709 5711 5714 5716 5717 5718 5719 5720 5720 5721 5721 5721 5722 5722 5724 5719 5719 5721 5719 5716 5715 5712 5708
5665 5666 5666 5667 5668 5669 5670 5671 5672 5675 5677 5678 5679 5681 5683 5686 5690 5692 5695 5697 5698 5700 5703 5706 5708 5709 5711 5712 5713 5713 5714 5714 5714 5715 5715 5715 5717 5714 5713 5712 5711 5709 5706 5703 5699
5656 5657 5658 5657 5659 5660 5660 5662 5663 5664 5668 5672 5672 5674 5676 5679 5683 5685 5688 5690 5692 5694 5696 5698 5701 5702 5704 5705 5706 5706 5707 5708 5709 5708 5708 5709 5711 5709 5707 5705 5704 5702 5699 5695 5690
5647 5647 5649 5649 5651 5652 5652 5653 5655 5656 5658 5664 5665 5666 5668 5670 5674 5678 5680 5683 5685 5688 5689 5691 5694 5696 5697 5698 5699 5700 5701 5701 5702 5703 5703 5703 5702 5703 5700 5699 5697 5694 5691 5687 5681
5637 5638 5639 5641 5642 5644 5644 5644 5646 5648 5649 5655 5657 5659 5661 5663 5667 5670 5672 5674 5678 5680 5683 5686 5687 5688 5689 5691 5692 5695 5695 5695 5695 5696 5697 5698 5694 5697 5693 5691 5690 5687 5683 5679 5673
5627 5628 5629 5631 5633 5635 5635 5636 5638 5641 5640 5644 5648 5650 5653 5655 5657 5661 5663 5666 5669 5671 5674 5677 5680 5681 5683 5684 5685 5687 5688 5688 5689 5689 5690 5691 5689 5689 5686 5685 5682 5679 5676 5671 5665
5616 5617 5620 5621 5624 5624 5626 5628 5630 5631 5635 5638 5639 5643 5644 5647 5648 5650 5655 5658 5661 5664 5667 5670 5671 5673 5675 5677 5679 5680 5682 5682 5682 5683 5683 5683 5682 5682 5679 5677 5675 5672 5668 5664 5658
5604 5606 5609 5611 5612 5613 5614 5617 5620 5625 5627 5628 5631 5633 5636 5639 5641 5643 5646 5649 5652 5655 5658 5659 5663 5666 5668 5670 5672 5673 5675 5676 5674 5676 5677 5676 5676 5675 5672 5671 5668 5665 5661 5657 5652
5592 5593 5597 5599 5599 5600 5602 5604 5612 5616 5620 5621 5623 5625 5628 5630 5633 5635 5638 5641 5643 5646 5648 5651 5654 5658 5661 5662 5665 5667 5667 5669 5667 5667 5668 5669 5671 5669 5665 5664 5661 5658 5654 5650 5645
5580 5582 5584 5585 5585 5586 5588 5595 5601 5606 5609 5612 5613 5616 5619 5622 5624 5626 5628 5634 5635 5638 5640 5643 5647 5650 5653 5655 5657 5659 5661 5661 5661 5659 5660 5660 5662 5661 5658 5657 5655 5651 5648 5644 5639
5567 5569 5572 5571 5571 5572 5578 5585 5590 5595 5599 5602 5604 5607 5610 5613 5615 5617 5620 5625 5626 5629 5632 5635 5638 5643 5644 5647 5650 5651 5652 5654 5654 5653 5652 5652 5656 5654 5651 5650 5648 5645 5642 5637 5633
5551 5553 5556 5558 5559 5561 5566 5572 5577 5581 5586 5590 5593 5597 5601 5604 5606 5607 5611 5614 5617 5621 5623 5626 5628 5631 5636 5638 5640 5642 5645 5645 5645 5646 5646 5645 5649 5645 5643 5643 5641 5637 5635 5631 5625
5530 5536 5538 5540 5544 5549 5553 5557 5561 5566 5571 5578 5582 5587 5591 5594 5596 5599 5602 5604 5606 5610 5612 5615 5617 5623 5627 5631 5633 5635 5637 5637 5637 5637 5640 5638 5643 5639 5635 5635 5633 5630 5627 5623 5618
5509 5512 5519 5521 5528 5533 5537 5542 5547 5552 5557 5563 5570 5574 5580 5584 5587 5590 5593 5597 5598 5599 5602 5605 5610 5615 5619 5622 5625 5627 5629 5629 5629 5630 5631 5633 5631 5634 5627 5627 5625 5623 5620 5615 5610
5482 5489 5494 5502 5506 5511 5518 5527 5532 5537 5543 5549 5556 5563 5568 5573 5578 5580 5583 5587 5589 5590 5591 5596 5601 5606 5610 5613 5616 5619 5621 5621 5623 5623 5621 5627 5622 5625 5624 5621 5618 5615 5612 5607 5602
5452 5458 5463 5479 5481 5488 5498 5511 5515 5521 5527 5535 5542 5550 5555 5563 5570 5571 5574 5577 5579 5581 5584 5587 5591 5595 5600 5604 5607 5609 5612 5614 5616 5615 5614 5615 5619 5612 5616 5614 5611 5608 5605 5600 5595
5418 5424 5429 5449 5456 5461 5476 5485 5495 5499 5510 5519 5527 5533 5541 5550 5554 5558 5562 5566 5570 5573 5575 5578 5582 5586 5590 5595 5598 5599 5607 5605 5608 5609 5608 5608 5610 5608 5608 5607 5604 5602 5598 5594 5589